Regional Weather Roundup
Issued by NWS

Home | Current Version | Previous Version | Graphics & Text | Print | Product List | Glossary On
Versions: 1 2 3 4 5 6 7 8 9 10 11 12 13 14 15 16 17 18 19 20 21 22 23 24 25 26 27 28 29 30 31 32 33 34 35 36 37 38 39 40 41 42 43 44 45 46 47 48 49 50
000
ASUS43 KMPX 211910
RWRMN
WEATHER ROUNDUP FOR MINNESOTA
NATIONAL WEATHER SERVICE TWIN CITIES/CHANHASSEN MN
200 PM CDT FRI JUL 21 2017


NOTE: "FAIR" INDICATES FEW OR NO CLOUDS BELOW 12,000 FEET WITH NO
SIGNIFICANT WEATHER AND/OR OBSTRUCTIONS TO VISIBILITY. N/A MEANS
CURRENT SKY AND/OR WEATHER CONDITIONS ARE NOT AVAILABLE.

MNZ060>063-068>070-212000-
   Twin Cities Metro

CITY           SKY/WX    TMP DP  RH WIND       PRES   REMARKS
TWIN CITIES    CLOUDY    77  68  73 S9        29.88F
ST PAUL        CLOUDY    75  71  87 SE9       29.88F
CRYSTAL        CLOUDY    76  67  73 SE9       29.86S
BLAINE         CLOUDY    75  73  94 SE8       29.87F
LAKEVILLE      CLOUDY    73  72  94 S7        29.88F
EDEN PRAIRIE   CLOUDY    80  70  71 S10       29.87S
SOUTH ST PAUL  CLOUDY    76  71  84 S7        29.88S
LAKE ELMO      PTSUNNY   73  70  88 SE8       29.88F
$$
MNZ001>005-007-008-013>017-022>024-027-028-212000-
   Northwest Minnesota

CITY           SKY/WX    TMP DP  RH WIND       PRES   REMARKS
BEMIDJI        SUNNY     84  62  47 SE16G25   29.83F
HALLOCK        CLOUDY    79  72  78 NE8       29.77F
ROSEAU         CLOUDY    79  70  73 S9        29.81F
WARROAD        CLOUDY    75  66  73 E10       29.81F
THIEF RVR FALL CLOUDY    82  73  74 S6        29.79F
CROOKSTON      MOSUNNY   82  72  69 SW8       29.76F
FOSSTON        MOSUNNY   84  70  61 S10       29.82S
DETROIT LAKES  MOSUNNY   82  72  69 SE8       29.83S
MOORHEAD       SUNNY     88  72  58 CALM      29.78S HX  94
PARK RAPIDS    MOSUNNY   86  66  51 SE15      29.83F
MAHNOMEN       FAIR      83  71  66 SE7       29.81F
$$
MNZ006-009>011-018-025>026-212000-
   North Central Minnesota

CITY           SKY/WX    TMP DP  RH WIND       PRES   REMARKS
BAUDETTE       MOSUNNY   76  62  62 E7        29.85S
FLAG ISLAND    CLOUDY    75  57  53 E6        29.85S
INTL FALLS     MOSUNNY   78  59  51 SE14      29.87F
WASKISH        PTSUNNY   84  64  51 S12G20    29.82S
BIG FORK       SUNNY     84  66  54 S8        29.85F
LONGVILLE      PTSUNNY   82  61  47 SE8G20    29.86F
GRAND RAPIDS   MOSUNNY   82  63  52 SE13G18   29.89F
CRANE LAKE     MOSUNNY   75  61  60 S3        29.91F
ORR            MOSUNNY   81  61  50 SE5         N/A
COOK           SUNNY     81  66  61 SE8       29.89F
WALKER         MOCLDY    80  62  52 SE10G17   29.84F
$$
MNZ012-019>021-037-212000-
   Northeast Minnesota

CITY           SKY/WX    TMP DP  RH WIND       PRES   REMARKS
DULUTH         CLOUDY    75  64  68 E9        29.92F
ELY            PTSUNNY   81  57  44 CALM      29.92F
HIBBING        SUNNY     80  63  55 S12       29.89F
EVELETH        SUNNY     81  59  47 SE14      29.91F
DULUTH HARBOR  CLOUDY    70  61  73 NE10      29.91F
TWO HARBORS    MOSUNNY   79  63  57 E9        29.91F
SILVER BAY     MOSUNNY   77  55  47 E7        29.92
GRAND MARAIS     N/A     66  56  70 NE7       29.93F
G MARAIS ARPRT MOSUNNY   70  52  52 CALM      29.99F
$$
MNZ029>031-032-039>041-046>048-054>057-064-212000-
   West Central Minnesota

CITY           SKY/WX    TMP DP  RH WIND       PRES   REMARKS
FERGUS FALLS   MOSUNNY   82  73  74 S8        29.80S
WHEATON        SUNNY     84  73  70 SE10      29.80F HX  91
MORRIS         SUNNY     86  72  62 SE14      29.82F HX  92
ALEXANDRIA     CLOUDY    82  72  71 S13       29.86S
ELBOW LAKE     FAIR      82  73  74 E10       29.83S HAZE
WADENA         PTSUNNY   81  70  69 S8        29.84R
GLENWOOD       MOSUNNY   82  72  69 S10G16    29.86F
APPLETON       MOSUNNY   86  70  58 SE9       29.82S HX  90
BENSON         PTSUNNY   84  72  65 S13G18    29.85S
ORTONVILLE     MOSUNNY   82  72  69 SE10      29.82S
MADISON        MOSUNNY   86  73  66 SE9       29.83S HX  93
WILLMAR        PTSUNNY   81  72  74 S14G20    29.87S
$$
MNZ033>034-036-042>043-049>051-058-059-212000-
   Central Minnesota

CITY           SKY/WX    TMP DP  RH WIND       PRES   REMARKS
ST CLOUD       CLOUDY    80  72  76 SE13      29.85F
SAUK CENTRE    MOCLDY    81  71  70 SE12G17   29.86R
PAYNESVILLE    MOSUNNY   82  71  68 SE13      29.86F
AITKIN         CLOUDY    81  66  61 SE13      29.86S
PINE RIVER     SUNNY     82  66  57 SE12      29.88F
BRAINERD       CLOUDY    80  69  69 SE10      29.85F
STAPLES        CLOUDY    82  68  61 S8        29.84F
LONG PRAIRIE   PTSUNNY   79  70  73 SE9       29.87R
LITTLE FALLS   MOSUNNY   81  68  65 SE8       29.86S
LITCHFIELD     CLOUDY    81  73  78 SE14      29.87R
BUFFALO        PTSUNNY   79  69  71 SE9       29.88R
MAPLE LAKE     CLOUDY    79  73  80 SE6       29.88S
HUTCHINSON     CLOUDY    78  73  84 SE12      29.88F
$$
MNZ037-044-045-052-053-212000-
   East Central Minnesota

CITY           SKY/WX    TMP DP  RH WIND       PRES   REMARKS
PRINCETON      CLOUDY    82  70  65 SE13      29.86F
MORA           CLOUDY    79  63  57 SE7       29.87F
CAMBRIDGE      PTSUNNY   81  66  61 SE12      29.86S
RUSH CITY      CLOUDY    79  66  65 SE14G21   29.88F
MOOSE LAKE     MOSUNNY   81  64  57 SE3       29.86F
HINCKLEY       FAIR      81  70  69 SE15      29.86F
CLOQUET        MOSUNNY   77  64  65 E9        29.91F
MCGREGOR       PTSUNNY   81  64  57 SE13      29.88F
$$
MNZ071>073-080-081-089-090-097-098-212000-
   Southwest Minnesota

CITY           SKY/WX    TMP DP  RH WIND       PRES   REMARKS
MONTEVIDEO     MOSUNNY   88  73  62 S10G17    29.84S HX  96
GRANITE FALLS  PTSUNNY   84  73  70 SE9       29.86R HX  90
CANBY          PTSUNNY   85  72  63 CALM      29.85S HX  91
MARSHALL       MOSUNNY   83  72  69 S7        29.85R
REDWOOD FALLS  MOSUNNY   82  71  69 S16G25    29.85R
OLIVIA         PTSUNNY   79  72  78 SE13      29.85S
PIPESTONE      MOSUNNY   82  72  69 S8        29.87S
WINDOM         CLOUDY    79  70  73 SE12      29.87S
WORTHINGTON    CLOUDY    78  71  79 SE13      29.88R
JACKSON        CLOUDY    77  70  78 SE16G23   29.88R
SLAYTON        MOSUNNY   77  68  72 SE12      29.88R
$$
MNZ065>067-074>077-082>085-091>093-212000-
   South Central Minnesota

CITY           SKY/WX    TMP DP  RH WIND       PRES   REMARKS
MANKATO        PTSUNNY   76  70  82 SE15      29.87F
NEW ULM        CLOUDY    77  72  83 SE15G22   29.86R
ST JAMES       CLOUDY    75  72  88 SE16G22   29.88R
FAIRMONT       CLOUDY    74  69  85 SE20G28   29.86R
GLENCOE        CLOUDY    78  74  88 S7        29.86F
FARIBAULT      LGT RAIN  72  70  94 E12       29.88F
OWATONNA       CLOUDY    73  70  88 SE12G18   29.88F
WASECA         CLOUDY    72  68  88 SE13      29.89F
ALBERT LEA     CLOUDY    70  70 100 SE12G18   29.88F
$$
MNZ078>079-086>088-094>096-212000-
   Southeast Minnesota

CITY           SKY/WX    TMP DP  RH WIND       PRES   REMARKS
ROCHESTER      LGT RAIN  69  67  93 S9        29.93F
RED WING       CLOUDY    73  68  83 SE7       29.87F
STANTON        CLOUDY    76  68  78 S15       29.87F
DODGE CENTER   CLOUDY    72  66  83 SE12      29.91F
WINONA         DRIZZLE   73  70  88 CALM      29.92F
AUSTIN         LGT RAIN  70  66  88 SE13      29.88F
PRESTON        RAIN      69  66  88 CALM      29.95R
$$
ABBREVIATIONS USED IN REMARKS
   TC - TEMPERATURES IN CELSIUS
  WCI - WIND CHILL INDEX
   HX - HEAT INDEX
  VSB - VISIBILITY
$$



USA.gov is the U.S. government's official web portal to all federal, state and local government web resources and services.